Weather History for Provo, UT

Change the Weather History Date:

Tuesday, September 17, 2013

  Actual Average Record
Temperature  
Mean Temperature 76 °F -  
Max Temperature 86 °F 73 °F 87 °F (1983)
Min Temperature 66 °F 46 °F 33 °F (2006)
Cooling Degree Days 11    
Growing Degree Days 26 (Base 50)    
Moisture  
Dew Point 51 °F    
Average Humidity 48    
Maximum Humidity 64    
Minimum Humidity 29    
Precipitation  
Precipitation 0.00 in - - ()
Sea Level Pressure  
Sea Level Pressure 29.88 in    
Wind  
Wind Speed 12 mph (SE)    
Max Wind Speed 21 mph    
Max Gust Speed 26 mph    
Visibility 12 miles    
Events Rain , Thunderstorm    
Averages and records for this station are not official NWS values.
T = Trace of Precipitation, MM = Missing Value Source: NWS Daily Summary

Daily Weather History Graph

Daily Weather History Graph

Search for Another Location

Airport:

Trip Planner

Search our weather history database for the weather conditions in past years. The results will help you decide how hot, cold, wet, or windy it might be!

Date:

Astronomy

Sep. 17, 2013 Rise Set
Actual Time 7:09 AM MDT 7:31 PM MDT
Civil Twilight 6:42 AM MDT 7:58 PM MDT
Nautical Twilight 6:10 AM MDT 8:30 PM MDT
Astronomical Twilight 5:38 AM MDT 9:03 PM MDT
Moon 6:21 PM MDT (9/17) 5:08 AM MDT (9/17)
Length of Visible Light 13h 16m
Length of Day
12h 21m
Waxing Gibbous, 96% of the Moon is Illuminated
Sep 17
Waxing Gibbous
Sep 19
Full
Sep 26
Last Quarter
Oct 4
New
Oct 11
First Quarter

Hourly Weather History & Observations

Time (MDT) Temp. Heat Index Dew Point Humidity Pressure Visibility Wind Dir Wind Speed Gust Speed Precip Events Conditions
12:15 AM 69.8 °F - 53.6 °F 56% 29.98 in 10.0 mi SSE 11.5 mph - N/A   Scattered Clouds
12:35 AM 69.8 °F - 53.6 °F 56% 29.98 in 10.0 mi South 8.1 mph - N/A   Clear
12:55 AM 69.8 °F - 53.6 °F 56% 29.98 in 10.0 mi SSE 12.7 mph - N/A   Clear
1:15 AM 69.8 °F - 53.6 °F 56% 29.98 in 10.0 mi SSE 13.8 mph - N/A   Clear
1:35 AM 69.8 °F - 53.6 °F 56% 29.98 in 10.0 mi SSE 13.8 mph - N/A   Scattered Clouds
1:55 AM 69.8 °F - 53.6 °F 56% 29.98 in 10.0 mi SSE 12.7 mph - N/A   Mostly Cloudy
2:15 AM 69.8 °F - 53.6 °F 56% 29.98 in 10.0 mi ESE 6.9 mph - N/A   Mostly Cloudy
2:35 AM 69.8 °F - 53.6 °F 56% 29.98 in 10.0 mi ESE 5.8 mph - N/A   Mostly Cloudy
2:55 AM 68.0 °F - 53.6 °F 60% 29.97 in 10.0 mi SE 8.1 mph - N/A   Mostly Cloudy
3:15 AM 68.0 °F - 53.6 °F 60% 29.97 in 10.0 mi SE 9.2 mph - N/A   Scattered Clouds
3:35 AM 68.0 °F - 53.6 °F 60% 29.97 in 10.0 mi ESE 5.8 mph - N/A   Scattered Clouds
3:55 AM 68.0 °F - 53.6 °F 60% 29.96 in 10.0 mi SE 11.5 mph - N/A   Partly Cloudy
4:15 AM 69.8 °F - 51.8 °F 53% 29.96 in 10.0 mi SSE 16.1 mph - N/A   Mostly Cloudy
4:35 AM 69.8 °F - 51.8 °F 53% 29.96 in 10.0 mi SSE 13.8 mph - N/A   Partly Cloudy
4:55 AM 66.2 °F - 53.6 °F 64% 29.95 in 10.0 mi SE 15.0 mph 19.6 mph N/A   Clear
5:15 AM 66.2 °F - 53.6 °F 64% 29.95 in 10.0 mi SE 12.7 mph - N/A   Clear
5:35 AM 66.2 °F - 51.8 °F 60% 29.95 in 10.0 mi SE 6.9 mph - N/A   Scattered Clouds
5:55 AM 69.8 °F - 51.8 °F 53% 29.96 in 10.0 mi SSE 15.0 mph - N/A   Mostly Cloudy
6:15 AM 69.8 °F - 51.8 °F 53% 29.94 in 10.0 mi East 12.7 mph - N/A   Mostly Cloudy
6:35 AM 66.2 °F - 51.8 °F 60% 29.94 in 10.0 mi SE 12.7 mph - N/A   Mostly Cloudy
6:50 AM 66.2 °F - 51.8 °F 60% 29.94 in 15.0 mi SE 11.5 mph - N/A   Mostly Cloudy
7:50 AM 68.0 °F - 51.8 °F 56% 29.94 in 15.0 mi SE 16.1 mph - N/A   Scattered Clouds
8:50 AM 68.0 °F - 51.8 °F 56% 29.93 in 15.0 mi SE 18.4 mph - N/A   Scattered Clouds
9:55 AM 73.4 °F - 51.8 °F 47% 29.92 in 15.0 mi SE 18.4 mph 26.5 mph N/A   Scattered Clouds
10:50 AM 78.8 °F - 53.6 °F 42% 29.89 in 15.0 mi SE 20.7 mph - N/A   Mostly Cloudy
10:55 AM 73.4 °F - 51.8 °F 47% 29.92 in 15.0 mi SE 18.4 mph 26.5 mph N/A   Scattered Clouds
11:59 AM 80.6 °F 80.3 °F 53.6 °F 39% 29.87 in 15.0 mi East 15.0 mph - N/A   Mostly Cloudy
12:50 PM 78.8 °F - 53.6 °F 42% 29.84 in 15.0 mi ESE 13.8 mph 23.0 mph N/A   Mostly Cloudy
1:50 PM 78.8 °F - 55.4 °F 44% 29.82 in 15.0 mi SSE 13.8 mph - N/A Rain , Thunderstorm Light Thunderstorms and Rain
3:58 PM 86.0 °F - 51.8 °F 31% 29.76 in 15.0 mi SSE 9.2 mph 23.0 mph N/A   Scattered Clouds
4:48 PM 84.2 °F - 48.2 °F 29% 29.74 in 15.0 mi SSW 11.5 mph 23.0 mph N/A   Scattered Clouds
5:48 PM 82.4 °F - 48.2 °F 30% 29.73 in 15.0 mi SSW 17.3 mph 23.0 mph N/A   Scattered Clouds
6:48 PM 80.6 °F - 48.2 °F 32% 29.73 in 15.0 mi SSW 11.5 mph - N/A   Scattered Clouds
7:48 PM 77.0 °F - 48.2 °F 36% 29.73 in 15.0 mi South 9.2 mph - N/A   Partly Cloudy
8:52 PM 75.2 °F - 42.8 °F 31% 29.74 in 15.0 mi SE 11.5 mph - N/A   Partly Cloudy
9:15 PM 73.4 °F - 42.8 °F 33% 29.74 in 10.0 mi SE 13.8 mph - N/A   Clear
9:35 PM 73.4 °F - 42.8 °F 33% 29.74 in 10.0 mi SE 13.8 mph - N/A   Clear
9:55 PM 71.6 °F - 44.6 °F 38% 29.75 in 10.0 mi SSE 9.2 mph - N/A   Clear
10:15 PM 71.6 °F - 44.6 °F 38% 29.75 in 10.0 mi SSE 11.5 mph - N/A   Clear
10:35 PM 71.6 °F - 46.4 °F 41% 29.75 in 10.0 mi SSE 10.4 mph - N/A   Clear
10:55 PM 69.8 °F - 48.2 °F 46% 29.76 in 10.0 mi SSE 11.5 mph - N/A   Clear
11:15 PM 69.8 °F - 46.4 °F 43% 29.76 in 10.0 mi SE 11.5 mph - N/A   Clear
11:35 PM 71.6 °F - 44.6 °F 38% 29.76 in 10.0 mi SSE 12.7 mph - N/A   Clear
11:55 PM 68.0 °F - 48.2 °F 49% 29.76 in 10.0 mi SSE 11.5 mph - N/A   Clear